Weather History for Visalia, CA

Change the Weather History Date:

Saturday, April 12, 2014

  Actual Average Record
Temperature  
Mean Temperature 66 °F -  
Max Temperature 78 °F 72 °F 93 °F (1951)
Min Temperature 55 °F 48 °F 39 °F (1991)
Cooling Degree Days 2    
Growing Degree Days 16 (Base 50)    
Moisture  
Dew Point 48 °F    
Average Humidity 52    
Maximum Humidity 72    
Minimum Humidity 34    
Precipitation  
Precipitation 0.00 in - - ()
Sea Level Pressure  
Sea Level Pressure 29.82 in    
Wind  
Wind Speed 5 mph (WNW)    
Max Wind Speed 13 mph    
Max Gust Speed -    
Visibility 10 miles    
Events      
Averages and records for this station are not official NWS values.
T = Trace of Precipitation, MM = Missing Value Source: NWS Daily Summary

Daily Weather History Graph

Daily Weather History Graph

Search for Another Location

Airport:

Trip Planner

Search our weather history database for the weather conditions in past years. The results will help you decide how hot, cold, wet, or windy it might be!

Date:

Astronomy

Apr. 12, 2014 Rise Set
Actual Time 6:28 AM PDT 7:29 PM PDT
Civil Twilight 6:01 AM PDT 7:55 PM PDT
Nautical Twilight 5:30 AM PDT 8:26 PM PDT
Astronomical Twilight 4:58 AM PDT 8:59 PM PDT
Moon 5:16 PM PDT (4/12) 4:53 AM PDT (4/12)
Length of Visible Light 13h 53m
Length of Day
13h 01m
Waxing Gibbous, 93% of the Moon is Illuminated
Apr 12
Waxing Gibbous
Apr 15
Full
Apr 22
Last Quarter
Apr 28
New
May 6
First Quarter

Hourly Weather History & Observations

Time (PDT) Temp. Dew Point Humidity Pressure Visibility Wind Dir Wind Speed Gust Speed Precip Events Conditions
12:15 AM 64.4 °F 51.8 °F 64% 29.80 in 10.0 mi WSW 4.6 mph - N/A   Clear
12:35 AM 64.4 °F 51.8 °F 64% 29.80 in 10.0 mi Calm Calm - N/A   Clear
12:55 AM 64.4 °F 51.8 °F 64% 29.81 in 10.0 mi WSW 3.5 mph - N/A   Clear
1:15 AM 62.6 °F 51.8 °F 68% 29.81 in 10.0 mi SE 5.8 mph - N/A   Clear
1:35 AM 60.8 °F 51.8 °F 72% 29.81 in 10.0 mi SSW 3.5 mph - N/A   Clear
1:55 AM 60.8 °F 50.0 °F 68% 29.80 in 10.0 mi SSE 4.6 mph - N/A   Clear
2:15 AM 60.8 °F 50.0 °F 68% 29.80 in 10.0 mi SE 4.6 mph - N/A   Clear
2:35 AM 60.8 °F 48.2 °F 63% 29.80 in 8.0 mi ESE 6.9 mph - N/A   Clear
2:55 AM 57.2 °F 44.6 °F 63% 29.80 in 10.0 mi ESE 6.9 mph - N/A   Clear
3:15 AM 57.2 °F 44.6 °F 63% 29.81 in 10.0 mi ESE 3.5 mph - N/A   Clear
3:35 AM 57.2 °F 44.6 °F 63% 29.81 in 10.0 mi Calm Calm - N/A   Clear
3:55 AM 57.2 °F 42.8 °F 59% 29.81 in 10.0 mi SE 4.6 mph - N/A   Clear
4:15 AM 55.4 °F 42.8 °F 63% 29.81 in 10.0 mi SSW 3.5 mph - N/A   Clear
4:35 AM 55.4 °F 42.8 °F 63% 29.81 in 10.0 mi Calm Calm - N/A   Clear
4:55 AM 55.4 °F 42.8 °F 63% 29.81 in 10.0 mi Calm Calm - N/A   Clear
5:15 AM 55.4 °F 42.8 °F 63% 29.81 in 10.0 mi Calm Calm - N/A   Clear
5:35 AM 55.4 °F 46.4 °F 72% 29.81 in 10.0 mi WNW 4.6 mph - N/A   Clear
5:55 AM 55.4 °F 46.4 °F 72% 29.82 in 10.0 mi NW 6.9 mph - N/A   Clear
6:15 AM 55.4 °F 46.4 °F 72% 29.82 in 10.0 mi NW 5.8 mph - N/A   Clear
6:55 AM 55.4 °F 46.4 °F 72% 29.83 in 10.0 mi Calm Calm - N/A   Clear
7:15 AM 55.4 °F 46.4 °F 72% 29.83 in 10.0 mi WNW 3.5 mph - N/A   Clear
7:35 AM 57.2 °F 46.4 °F 67% 29.84 in 10.0 mi WNW 4.6 mph - N/A   Clear
7:55 AM 57.2 °F 48.2 °F 72% 29.84 in 10.0 mi NW 4.6 mph - N/A   Clear
8:15 AM 59.0 °F 48.2 °F 67% 29.85 in 10.0 mi NNW 4.6 mph - N/A   Clear
8:35 AM 60.8 °F 48.2 °F 63% 29.85 in 10.0 mi North 4.6 mph - N/A   Clear
8:55 AM 60.8 °F 48.2 °F 63% 29.85 in 10.0 mi North 4.6 mph - N/A   Clear
9:15 AM 62.6 °F 48.2 °F 59% 29.85 in 10.0 mi Calm Calm - N/A   Clear
9:35 AM 62.6 °F 50.0 °F 63% 29.85 in 10.0 mi West 4.6 mph - N/A   Clear
9:55 AM 64.4 °F 51.8 °F 64% 29.86 in 10.0 mi West 4.6 mph - N/A   Clear
10:15 AM 64.4 °F 51.8 °F 64% 29.86 in 10.0 mi West 3.5 mph - N/A   Clear
10:35 AM 64.4 °F 51.8 °F 64% 29.87 in 10.0 mi WSW 4.6 mph - N/A   Clear
10:55 AM 68.0 °F 53.6 °F 60% 29.87 in 10.0 mi NW 5.8 mph - N/A   Clear
11:15 AM 69.8 °F 53.6 °F 56% 29.87 in 10.0 mi NNW 8.1 mph - N/A   Clear
11:35 AM 71.6 °F 51.8 °F 50% 29.86 in 10.0 mi West 9.2 mph - N/A   Clear
11:55 AM 71.6 °F 51.8 °F 50% 29.86 in 10.0 mi West 11.5 mph - N/A   Clear
12:15 PM 71.6 °F 50.0 °F 46% 29.86 in 10.0 mi West 11.5 mph - N/A   Clear
12:35 PM 73.4 °F 51.8 °F 47% 29.86 in 10.0 mi West 12.7 mph - N/A   Clear
12:55 PM 73.4 °F 50.0 °F 44% 29.85 in 10.0 mi NW 4.6 mph - N/A   Clear
1:15 PM 73.4 °F 50.0 °F 44% 29.85 in 10.0 mi NW 8.1 mph - N/A   Clear
1:35 PM 75.2 °F 50.0 °F 41% 29.84 in 10.0 mi WNW 6.9 mph - N/A   Clear
1:55 PM 75.2 °F 48.2 °F 38% 29.84 in 10.0 mi WNW 6.9 mph - N/A   Clear
2:15 PM 77.0 °F 48.2 °F 36% 29.83 in 10.0 mi NNW 4.6 mph - N/A   Clear
2:35 PM 77.0 °F 48.2 °F 36% 29.82 in 10.0 mi WNW 5.8 mph - N/A   Clear
2:55 PM 78.8 °F 48.2 °F 34% 29.82 in 10.0 mi West 4.6 mph - N/A   Clear
3:15 PM 78.8 °F 48.2 °F 34% 29.82 in 10.0 mi SW 3.5 mph - N/A   Clear
3:35 PM 78.8 °F 48.2 °F 34% 29.81 in 10.0 mi West 8.1 mph - N/A   Clear
3:55 PM 78.8 °F 48.2 °F 34% 29.80 in 10.0 mi West 6.9 mph - N/A   Clear
4:15 PM 78.8 °F 48.2 °F 34% 29.80 in 10.0 mi NW 8.1 mph - N/A   Clear
4:35 PM 78.8 °F 48.2 °F 34% 29.80 in 10.0 mi West 6.9 mph - N/A   Clear
4:55 PM 78.8 °F 48.2 °F 34% 29.80 in 10.0 mi West 8.1 mph - N/A   Clear
5:15 PM 78.8 °F 48.2 °F 34% 29.78 in 10.0 mi West 8.1 mph - N/A   Clear
5:35 PM 78.8 °F 48.2 °F 34% 29.79 in 10.0 mi West 8.1 mph - N/A   Clear
5:55 PM 78.8 °F 48.2 °F 34% 29.78 in 10.0 mi West 8.1 mph - N/A   Clear
6:15 PM 78.8 °F 48.2 °F 34% 29.78 in 10.0 mi West 8.1 mph - N/A   Partly Cloudy
6:35 PM 77.0 °F 48.2 °F 36% 29.78 in 10.0 mi West 6.9 mph - N/A   Clear
6:55 PM 75.2 °F 48.2 °F 38% 29.78 in 10.0 mi WNW 5.8 mph - N/A   Clear
7:15 PM 73.4 °F 48.2 °F 41% 29.78 in 10.0 mi WNW 5.8 mph - N/A   Clear
7:35 PM 71.6 °F 46.4 °F 41% 29.79 in 10.0 mi WNW 6.9 mph - N/A   Clear
7:55 PM 71.6 °F 46.4 °F 41% 29.79 in 10.0 mi NW 6.9 mph - N/A   Clear
8:15 PM 69.8 °F 46.4 °F 43% 29.81 in 10.0 mi NW 5.8 mph - N/A   Clear
8:35 PM 69.8 °F 46.4 °F 43% 29.81 in 10.0 mi NW 9.2 mph - N/A   Clear
8:55 PM 71.6 °F 46.4 °F 41% 29.82 in 10.0 mi NNW 9.2 mph - N/A   Clear
9:15 PM 69.8 °F 46.4 °F 43% 29.83 in 10.0 mi NW 10.4 mph - N/A   Clear
9:35 PM 69.8 °F 44.6 °F 40% 29.83 in 10.0 mi NNW 10.4 mph - N/A   Clear
9:55 PM 69.8 °F 44.6 °F 40% 29.84 in 10.0 mi NNW 9.2 mph - N/A   Clear
10:15 PM 68.0 °F 44.6 °F 43% 29.84 in 10.0 mi NNW 8.1 mph - N/A   Clear
10:35 PM 64.4 °F 44.6 °F 49% 29.83 in 10.0 mi NNW 6.9 mph - N/A   Clear
10:55 PM 66.2 °F 44.6 °F 46% 29.85 in 10.0 mi NNW 8.1 mph - N/A   Clear
11:15 PM 64.4 °F 44.6 °F 49% 29.86 in 10.0 mi NNW 10.4 mph - N/A   Clear
11:35 PM 62.6 °F 46.4 °F 55% 29.86 in 10.0 mi NNW 10.4 mph - N/A   Clear
11:55 PM 62.6 °F 46.4 °F 55% 29.87 in 10.0 mi NNW 8.1 mph - N/A   Clear